Jackpot Winner Ceme

Jackpot dilihat dari gabungan kartu pemain dengan kartu bandar. Bandar harus membeli jackpot sebanyak jumlah player yang sedang duduk. Sebagai contoh bila terdapat 3 pemain duduk bermain, dan bandar memutuskan untuk membeli jackpot Rp 1.000, maka pada periode tersebut bandar akan membeli jackpot sebanyak 3xRp1.000 = Rp3.000.

Jackpot bukanlah suatu keharusan untuk dibeli, namun kami memberikan suatu fitur tambahan untuk member tercinta dari www.npselalu.com.

Terdapat tiga pilihan harga jackpot yang bisa anda beli yaitu :100,500 dan 1000 rupiah.

Hadiah dari Multi jackpot system www.npselalu.com

  1. Murni Kecil x 50 harga jackpot yang anda beli.
      (contoH:anda membeli 1000 maka:1000 X 50 = 50.000)
  2. Murni Besar x 50 harga jackpot yang anda beli
      (contoH:anda membeli 1000 maka:1000 X 50 = 50.000)
  3. BALAK x 200 harga jackpot yang anda beli
      (contoH:anda membeli 1000 maka:1000 X 200 = 200.000)
  4. ENAM DEWA x 6666 harga jackpot yang anda beli
      (contoH:anda membeli 1000 maka:1000 X 6666 = 6.666.000)

Demikian adalah penjelasan dari Multi Jackpot www.npselalu.com terima kasih dan selamat bermain salam hoki dari kami


Jackpot Winner

TOP ENAM DEWA
No.TanggalNamaPriceWin
127/04 19:42P1J3Tmurni enam6,666,000
227/04 19:42SEW_02murni enam666,600
327/04 18:59I1EP8MEDWSmurni enam6,666,000
427/04 18:32DYBALA_96murni enam6,666,000
527/04 18:20LANMEZmurni enam666,600
TOP BALAK
No.TanggalNamaPriceWin
127/04 19:59HOEUTYJOQMbalak100,000
227/04 19:58FHD69balak200,000
327/04 19:57TOGOK99999balak100,000
427/04 19:56MATAHARI91balak200,000
527/04 19:56SILVA64balak100,000
LATEST JACKPOT
No.TanggalNamaPriceWin
127/04 19:59P1J3Tmurni kecil50,000
227/04 19:59ONTTA99murni besar25,000
327/04 19:59HOEUTYJOQMbalak100,000
427/04 19:59RAJATUYUL8murni besar5,000
527/04 19:59PENJAGA88murni kecil50,000
627/04 19:59IRFANUDINmurni besar25,000
727/04 19:59ANANGPLAYmurni besar5,000
827/04 19:58ADEEVA15murni kecil25,000
927/04 19:58SAIYO77murni kecil5,000
1027/04 19:58AAHAH123murni kecil25,000
1127/04 19:58SIBANG00murni kecil25,000
1227/04 19:58K0ROmurni besar50,000
1327/04 19:58FHD69balak200,000
1427/04 19:58REHSABAYUmurni kecil50,000
1527/04 19:58JUANLIEmurni kecil50,000
1627/04 19:58EKINOFRIImurni kecil25,000
1727/04 19:58L1210murni kecil5,000
1827/04 19:57JANGKUNG78murni kecil50,000
1927/04 19:57TOGOK99999balak100,000
2027/04 19:57AZAZIOmurni besar50,000
2127/04 19:57KESPOTJPmurni besar50,000
2227/04 19:57LONCOTmurni besar50,000
2327/04 19:57AFYA0WWO8Smurni besar50,000
2427/04 19:57SIBANG00murni kecil25,000
2527/04 19:57PLETUK3murni kecil50,000
2627/04 19:56N3Y62WXMKYmurni kecil25,000
2727/04 19:56RATNO66murni kecil50,000
2827/04 19:5699TERUSmurni kecil50,000
2927/04 19:56MATAHARI91balak200,000
3027/04 19:56SILVA64balak100,000
3127/04 19:56GANGTEMPEmurni kecil50,000
3227/04 19:56B1MM012murni kecil25,000
3327/04 19:56BABON11Xmurni kecil25,000
3427/04 19:55XUBK7QK148balak100,000
3527/04 19:55TYAAbalak20,000
3627/04 19:55HOKYU123murni kecil50,000
3727/04 19:55KUNTUY79murni kecil50,000
3827/04 19:55UBER1997murni kecil5,000
3927/04 19:55MATASABUbalak100,000
4027/04 19:54DIRGA29murni kecil50,000
4127/04 19:54MORHEIM259murni kecil50,000
4227/04 19:54MATAHARI91murni besar50,000
4327/04 19:54EKO112murni besar50,000
4427/04 19:54ARIETA88balak200,000
4527/04 19:54APERDANAmurni kecil5,000
4627/04 19:54HERI00316murni kecil50,000
4727/04 19:54CJDWCAKmurni kecil5,000
4827/04 19:54HUUT45murni kecil50,000
4927/04 19:54ASGEBOTmurni besar50,000
5027/04 19:54DEDICOYmurni besar50,000
Dewa.FM